Location: Unspecified
(0.0000°N, 0.0000°E)
Time: 19:14:05
(UTC+00:00)

Explorer 11/Cluster Stage 4 - Visible Passes

Search period start: 17 January 2017 00:00
Search period end: 27 January 2017 00:00
Orbit: 467 x 1264 km, 28.8° (Epoch: 17 January)

Date Brightness Start Highest point End Pass type
(mag) Time Alt. Az. Time Alt. Az. Time Alt. Az.
17 Jan 6.1 05:14:42 17° NW 05:17:58 60° NNE 05:21:47 10° ESE visible
17 Jan 9.0 19:49:19 10° WNW 19:55:13 22° NNW 19:58:39 17° N visible
18 Jan 5.9 05:05:32 25° NW 05:08:12 82° NNE 05:12:10 10° ESE visible
18 Jan 9.2 19:40:01 10° WNW 19:45:19 19° NNW 19:49:25 13° N visible
19 Jan 6.0 04:56:22 33° WNW 04:58:24 75° SSW 05:02:28 10° SE visible
19 Jan 9.3 19:30:52 10° WNW 19:35:27 16° NNW 19:40:08 10° NNE visible
20 Jan 6.3 04:47:11 40° W 04:48:35 57° SSW 04:52:44 10° SE visible
20 Jan 9.4 19:21:57 10° NW 19:25:37 14° NNW 19:29:25 10° N visible
21 Jan 6.7 04:37:58 41° WSW 04:38:43 44° SSW 04:42:55 10° SE visible
21 Jan 9.5 19:13:24 10° NW 19:15:51 12° NNW 19:18:21 10° N visible
22 Jan 7.2 04:28:44 36° SW 04:28:51 36° SSW 04:33:03 10° SE visible
23 Jan 7.6 04:19:27 29° SSW 04:19:27 29° SSW 04:23:08 10° SSE visible
24 Jan 8.1 04:10:08 23° SSW 04:10:08 23° SSW 04:13:09 10° SSE visible
25 Jan 8.5 04:00:46 19° S 04:00:46 19° S 04:03:06 10° SSE visible
26 Jan 8.8 03:51:22 15° S 03:51:22 15° S 03:53:00 10° SSE visible
